Location: Unspecified
(51.0950°N, 12.9690°E)
Time: 15:36:35
(UTC+00:00)

FALCON 9 DEB - Pass Details

Date: 28 October 2021
Orbit: 345 x 355 km, 53.0° (Epoch: 26 November)

Event Time Altitude Azimuth Distance (km) Brightness Sun altitude
Rises 17:00:07 0° 214° (SSW) 2,158 7.3 -11.6°
Reaches altitude 10° 17:02:21 10° 199° (SSW) 1,323 5.9 -12.0°
Maximum altitude 17:04:45 23° 144° (SE) 818 4.2 -12.4°
Enters shadow 17:05:38 20° 116° (ESE) 904 4.2 -12.5°
